Powrót do katalogu

RADCAL

AktywnyMilitariaPO
NORAD 22698·PAYLOAD·🇺🇸 United States

Wystrzelony Jun 25, 1993 z Vandenberg Space Force Base

Loading…

Następne Przeloty (najbliższe 24 godziny)

TLE

ŚwieżeSource: Space-Track

Epoka: Sep 14, 2026, 10:06 UTC

1 22698U 93041A   26257.42132977  .00000110  00000-0  40921-4 0  9993
2 22698  89.5000  55.2200 0085978 253.7686 105.4034 14.24202862724897

Śledź RADCAL w czasie rzeczywistym z AllMySat

Download on the App Store